Temp
-10 -10 -10 -10 -10 -10 -10 -11 -11 -10 -10 -11 -10 -10 -10 -10 -10 -10 -10 -9 -9 -9 -9 -9 -9 -9 -9 -9 -9 -9 -9 -9 -9 -9 -9 -9 -9 -9 -9 -9 -9 -9 -9
-10 -10 -10 -10 -10 -10 -11 -11 -11 -10 -11 -11 -11 -11 -11 -10 -10 -10 -10 -10 -10 -10 -10 -9 -9 -9 -9 -9 -9 -9 -9 -9 -9 -9 -9 -9 -9 -9 -9 -9 -9 -9 -9
-11 -11 -11 -11 -10 -10 -10 -10 -11 -10 -10 -10 -11 -10 -10 -10 -10 -10 -10 -10 -10 -10 -10 -10 -10 -10 -10 -9 -9 -9 -10 -9 -9 -9 -9 -9 -9 -9 -9 -9 -9 -9 -9
-11 -11 -11 -11 -10 -10 -10 -10 -10 -10 -10 -10 -10 -10 -10 -10 -10 -10 -10 -10 -10 -10 -10 -10 -10 -10 -10 -10 -10 -10 -10 -10 -10 -10 -9 -9 -9 -9 -9 -9 -9 -9 -9
-11 -11 -11 -11 -11 -11 -10 -10 -10 -10 -10 -10 -10 -10 -10 -10 -10 -10 -10 -10 -10 -10 -10 -10 -10 -10 -10 -10 -10 -10 -10 -10 -10 -10 -10 -10 -10 -10 -9 -10 -10 -10 -9
-11 -11 -11 -11 -11 -11 -11 -11 -10 -10 -10 -10 -10 -10 -10 -10 -10 -10 -10 -10 -10 -10 -10 -10 -10 -10 -10 -10 -10 -10 -10 -10 -10 -10 -10 -10 -10 -10 -10 -10 -10 -10 -10
-11 -11 -11 -11 -11 -10 -10 -10 -10 -10 -10 -10 -10 -10 -10 -10 -10 -10 -10 -11 -11 -11 -11 -10 -10 -10 -10 -10 -10 -10 -10 -10 -10 -10 -10 -10 -10 -10 -10 -10 -10 -10 -10
-11 -11 -11 -10 -10 -10 -10 -10 -10 -10 -10 -10 -10 -10 -10 -10 -10 -10 -10 -11 -11 -11 -11 -11 -11 -11 -11 -11 -11 -11 -11 -11 -11 -11 -11 -10 -11 -11 -11 -11 -11 -11 -10
-11 -11 -11 -11 -11 -11 -11 -11 -11 -11 -11 -11 -11 -11 -11 -11 -11 -11 -11 -11 -11 -11 -11 -11 -11 -11 -11 -11 -12 -12 -12 -11 -11 -11 -11 -11 -11 -11 -11 -11 -11 -11 -11
-11 -11 -11 -11 -11 -11 -11 -11 -11 -11 -11 -11 -11 -11 -11 -12 -11 -11 -11 -11 -11 -11 -12 -12 -12 -12 -12 -12 -12 -12 -12 -12 -11 -11 -11 -11 -11 -12 -12 -12 -12 -12 -11
-11 -11 -11 -11 -11 -12 -12 -12 -12 -12 -12 -12 -12 -11 -11 -11 -12 -12 -12 -12 -12 -11 -11 -12 -12 -12 -12 -12 -12 -12 -13 -12 -12 -12 -12 -12 -12 -12 -12 -12 -12 -12 -12
-11 -11 -11 -12 -12 -12 -12 -12 -11 -11 -11 -11 -11 -12 -12 -12 -12 -12 -12 -12 -12 -12 -12 -12 -12 -12 -12 -12 -12 -12 -13 -13 -13 -13 -12 -12 -12 -12 -12 -12 -12 -12 -12
-12 -12 -12 -12 -12 -11 -11 -11 -11 -11 -11 -11 -11 -11 -11 -12 -12 -12 -12 -12 -12 -12 -12 -12 -12 -12 -12 -13 -13 -13 -13 -13 -13 -13 -12 -13 -13 -13 -13 -13 -12 -12 -12
-12 -12 -11 -11 -11 -11 -11 -11 -11 -11 -11 -11 -11 -11 -11 -11 -11 -11 -11 -11 -11 -12 -12 -12 -12 -12 -12 -12 -12 -12 -13 -13 -13 -13 -13 -12 -13 -13 -13 -13 -13 -13 -12
-11 -11 -12 -12 -11 -11 -11 -11 -11 -11 -11 -12 -11 -11 -12 -12 -12 -12 -12 -12 -12 -11 -11 -11 -12 -12 -12 -12 -12 -12 -12 -12 -13 -13 -13 -12 -13 -13 -13 -13 -14 -13 -13
-12 -12 -12 -11 -11 -11 -11 -11 -11 -11 -11 -11 -11 -12 -12 -12 -12 -12 -12 -12 -12 -12 -12 -12 -12 -12 -12 -12 -12 -12 -12 -12 -13 -13 -13 -13 -13 -13 -13 -13 -13 -13 -13
-12 -12 -11 -11 -11 -11 -11 -11 -11 -11 -12 -11 -12 -12 -12 -12 -12 -12 -12 -12 -12 -12 -12 -12 -12 -12 -12 -12 -13 -13 -13 -13 -13 -13 -13 -13 -13 -13 -13 -13 -13 -13 -13
-11 -11 -11 -11 -11 -12 -12 -12 -12 -12 -12 -12 -12 -12 -12 -12 -12 -13 -13 -13 -13 -13 -12 -12 -13 -13 -13 -13 -13 -13 -13 -13 -13 -13 -13 -13 -13 -13 -13 -13 -13 -13 -13
-11 -11 -11 -12 -12 -12 -12 -12 -12 -12 -12 -12 -12 -13 -13 -13 -13 -13 -13 -13 -13 -13 -13 -13 -13 -12 -13 -13 -14 -14 -14 -14 -14 -14 -13 -13 -13 -13 -13 -13 -14 -13 -13
-12 -12 -12 -12 -12 -12 -12 -12 -12 -12 -12 -13 -13 -13 -13 -13 -14 -13 -14 -14 -14 -14 -14 -14 -14 -14 -14 -14 -14 -14 -14 -14 -14 -14 -14 -14 -13 -13 -13 -13 -13 -13 -13
-12 -12 -12 -12 -12 -13 -13 -13 -13 -13 -13 -13 -14 -14 -14 -14 -14 -14 -14 -14 -14 -15 -15 -15 -15 -15 -15 -14 -14 -14 -14 -15 -15 -15 -14 -14 -14 -14 -14 -13 -13 -13 -14
-12 -12 -12 -12 -13 -13 -13 -14 -14 -14 -14 -14 -15 -15 -15 -15 -15 -15 -16 -16 -16 -15 -16 -16 -16 -16 -16 -16 -16 -15 -15 -15 -15 -15 -15 -15 -14 -14 -14 -14 -13 -13 -13
-12 -12 -12 -12 -13 -13 -14 -14 -15 -15 -15 -15 -15 -15 -15 -15 -16 -16 -16 -17 -17 -17 -17 -17 -17 -17 -17 -17 -17 -17 -16 -16 -16 -16 -16 -15 -15 -15 -15 -14 -14 -14 -13
-13 -13 -13 -13 -14 -14 -15 -15 -15 -15 -15 -15 -16 -16 -16 -17 -17 -17 -17 -17 -17 -18 -18 -18 -18 -18 -18 -17 -17 -17 -17 -17 -16 -16 -16 -16 -16 -15 -15 -15 -14 -14 -14
-13 -14 -14 -15 -15 -15 -15 -15 -15 -15 -16 -16 -16 -17 -17 -18 -18 -18 -18 -18 -18 -18 -18 -18 -18 -18 -18 -18 -18 -18 -18 -17 -17 -17 -16 -17 -17 -16 -16 -15 -15 -14 -14
-14 -14 -15 -15 -15 -15 -16 -16 -16 -16 -16 -17 -17 -18 -18 -18 -18 -18 -19 -19 -19 -19 -19 -19 -19 -19 -19 -19 -20 -20 -20 -20 -21 -20 -17 -16 -17 -17 -17 -16 -16 -15 -15
Height
5860 5859 5858 5856 5855 5853 5852 5851 5850 5848 5848 5847 5847 5846 5845 5844 5844 5844 5843 5842 5842 5841 5840 5839 5838 5837 5836 5835 5833 5833 5831 5829 5828 5826 5825 5823 5820 5818 5816 5814 5811 5809 5807
5857 5856 5855 5854 5853 5851 5850 5849 5848 5847 5845 5844 5844 5844 5843 5843 5842 5841 5841 5840 5839 5839 5838 5837 5836 5835 5834 5833 5831 5830 5828 5826 5825 5823 5821 5819 5817 5815 5813 5811 5808 5806 5804
5853 5853 5852 5851 5850 5849 5848 5847 5845 5845 5845 5844 5843 5842 5841 5841 5840 5838 5839 5837 5837 5836 5835 5834 5833 5832 5831 5830 5829 5827 5825 5823 5821 5819 5817 5816 5813 5811 5809 5808 5805 5803 5801
5851 5850 5849 5848 5848 5847 5847 5846 5845 5844 5844 5842 5841 5840 5839 5838 5837 5836 5835 5834 5833 5832 5831 5831 5829 5828 5827 5826 5824 5823 5821 5820 5818 5816 5814 5812 5810 5808 5806 5804 5802 5800 5798
5850 5848 5847 5847 5845 5845 5844 5844 5844 5843 5843 5841 5840 5839 5838 5836 5835 5834 5832 5831 5831 5829 5828 5826 5825 5824 5822 5821 5820 5819 5817 5816 5814 5812 5810 5809 5806 5805 5803 5802 5800 5798 5796
5848 5847 5845 5844 5843 5842 5842 5841 5840 5840 5839 5838 5837 5836 5835 5834 5833 5832 5830 5829 5827 5825 5824 5823 5822 5820 5818 5817 5815 5814 5814 5812 5810 5808 5807 5806 5803 5801 5800 5798 5797 5795 5793
5846 5844 5843 5841 5839 5838 5838 5838 5837 5836 5835 5835 5834 5832 5831 5830 5829 5828 5827 5826 5824 5822 5820 5819 5817 5816 5814 5812 5811 5810 5809 5808 5806 5805 5802 5801 5800 5798 5796 5794 5793 5792 5791
5843 5840 5838 5837 5835 5834 5834 5833 5833 5832 5831 5830 5829 5828 5828 5826 5824 5823 5822 5821 5820 5818 5816 5814 5813 5811 5809 5807 5806 5805 5803 5803 5802 5800 5798 5797 5795 5794 5792 5791 5790 5789 5787
5839 5837 5835 5834 5832 5830 5829 5829 5828 5827 5826 5825 5823 5822 5822 5821 5819 5818 5816 5815 5815 5812 5811 5809 5807 5806 5804 5802 5800 5799 5798 5797 5796 5795 5794 5793 5792 5790 5789 5788 5786 5786 5784
5835 5833 5831 5830 5829 5827 5825 5824 5823 5822 5821 5819 5818 5817 5816 5814 5812 5811 5810 5809 5808 5806 5804 5803 5801 5800 5799 5797 5795 5793 5792 5792 5791 5790 5789 5788 5788 5786 5785 5784 5783 5782 5781
5832 5830 5828 5826 5825 5823 5821 5820 5818 5817 5815 5814 5813 5812 5811 5809 5807 5805 5803 5803 5801 5800 5798 5796 5794 5793 5793 5791 5788 5787 5787 5786 5786 5784 5784 5784 5783 5781 5781 5780 5779 5778 5777
5828 5826 5824 5822 5820 5819 5818 5816 5814 5812 5811 5809 5808 5806 5805 5804 5802 5800 5799 5797 5795 5794 5793 5791 5789 5788 5785 5784 5783 5781 5781 5780 5779 5778 5777 5778 5777 5776 5775 5775 5775 5774 5773
5824 5823 5820 5818 5817 5815 5813 5812 5810 5808 5806 5804 5802 5801 5799 5798 5797 5795 5793 5791 5788 5787 5786 5785 5783 5782 5779 5776 5775 5774 5774 5774 5773 5772 5772 5773 5771 5771 5770 5769 5770 5769 5769
5819 5817 5815 5813 5812 5810 5808 5806 5805 5803 5802 5800 5798 5796 5794 5792 5790 5789 5787 5784 5782 5780 5778 5777 5776 5775 5773 5770 5769 5770 5769 5768 5767 5767 5766 5768 5766 5765 5764 5764 5763 5763 5763
5812 5811 5809 5808 5806 5804 5802 5800 5799 5797 5796 5795 5793 5791 5789 5786 5784 5781 5779 5777 5774 5773 5771 5768 5767 5765 5764 5763 5762 5760 5761 5760 5759 5758 5759 5759 5760 5758 5758 5757 5757 5758 5757
5806 5804 5803 5801 5799 5797 5795 5793 5792 5790 5788 5786 5784 5783 5781 5780 5778 5774 5771 5768 5766 5763 5761 5759 5758 5756 5755 5753 5752 5751 5751 5750 5751 5750 5750 5748 5752 5751 5751 5751 5750 5751 5751
5800 5799 5797 5795 5793 5791 5788 5787 5785 5783 5781 5779 5777 5774 5772 5769 5766 5764 5762 5759 5755 5752 5749 5748 5746 5744 5743 5742 5741 5740 5740 5740 5739 5740 5740 5740 5738 5743 5743 5743 5744 5743 5744
5795 5793 5791 5789 5787 5785 5782 5780 5778 5776 5774 5771 5769 5766 5763 5760 5756 5752 5749 5746 5743 5740 5737 5735 5732 5731 5729 5728 5727 5727 5727 5727 5727 5727 5728 5729 5731 5730 5733 5733 5735 5736 5736
5788 5786 5784 5782 5780 5778 5775 5773 5771 5768 5765 5762 5759 5756 5753 5749 5745 5741 5737 5732 5728 5724 5721 5719 5717 5715 5713 5713 5713 5713 5712 5713 5714 5714 5714 5715 5718 5718 5719 5722 5724 5724 5728
5781 5779 5777 5774 5772 5769 5767 5764 5761 5758 5754 5751 5748 5744 5740 5736 5731 5725 5720 5716 5711 5707 5704 5702 5700 5697 5694 5694 5694 5695 5696 5696 5697 5699 5701 5701 5702 5703 5707 5709 5710 5714 5716
5774 5772 5770 5766 5763 5760 5757 5753 5749 5745 5741 5737 5733 5728 5722 5718 5712 5707 5702 5698 5693 5689 5685 5683 5681 5679 5676 5672 5672 5676 5677 5677 5678 5678 5681 5685 5688 5688 5690 5695 5697 5699 5704
5767 5764 5760 5756 5753 5749 5746 5741 5737 5733 5728 5723 5717 5712 5707 5701 5696 5691 5687 5682 5678 5673 5668 5665 5662 5660 5656 5653 5651 5652 5654 5659 5655 5659 5660 5663 5670 5673 5675 5677 5682 5685 5688
5757 5754 5749 5746 5742 5738 5733 5729 5725 5720 5714 5708 5702 5696 5691 5686 5680 5675 5670 5665 5661 5657 5653 5649 5645 5642 5641 5637 5633 5630 5633 5633 5635 5639 5639 5640 5646 5653 5659 5660 5665 5670 5674
5746 5741 5738 5734 5730 5726 5721 5717 5711 5706 5700 5694 5688 5682 5675 5669 5664 5659 5654 5650 5646 5642 5637 5634 5630 5627 5624 5621 5617 5612 5608 5607 5609 5616 5622 5621 5621 5627 5632 5638 5644 5651 5658
5735 5731 5726 5723 5719 5714 5709 5704 5699 5693 5686 5680 5674 5667 5661 5655 5649 5644 5639 5634 5630 5626 5622 5619 5614 5610 5606 5602 5595 5592 5588 5585 5582 5582 5591 5599 5602 5602 5606 5614 5624 5634 5643
5723 5719 5715 5711 5707 5702 5698 5692 5686 5679 5673 5667 5661 5655 5649 5644 5638 5631 5625 5620 5615 5612 5607 5603 5599 5594 5590 5583 5578 5572 5567 5563 5559 5557 5557 5564 5575 5583 5582 5588 5599 5609 5619
Wind_Speed
18 17 16 14 11 9 10 11 13 13 13 14 14 11 11 10 9 8 10 12 14 16 17 18 18 19 20 21 21 22 22 23 25 25 26 26 28 30 30 27 24 23 22
19 19 18 16 15 13 12 12 13 13 13 13 13 14 13 11 10 10 12 13 14 17 18 20 21 22 23 24 25 26 26 27 28 29 29 29 30 31 29 26 23 22 22
23 21 21 19 17 16 16 15 14 15 13 13 13 13 13 12 11 11 12 13 15 17 20 22 24 26 27 28 29 30 29 29 29 30 30 28 27 26 24 23 22 22 21
27 25 24 22 20 19 19 19 19 19 19 16 16 15 16 16 16 14 13 14 15 16 18 19 21 23 26 27 28 28 28 28 26 25 25 24 25 24 24 22 22 22 21
25 25 22 23 23 21 21 22 21 21 22 22 22 22 21 20 20 20 21 21 20 19 20 21 22 23 25 26 27 28 28 27 27 26 26 25 26 24 24 25 23 22 22
25 24 23 23 22 22 22 23 23 24 25 25 25 25 25 25 24 23 22 23 24 24 25 25 26 27 27 28 28 28 29 29 27 28 27 25 26 26 25 25 26 24 22
27 24 26 26 26 24 23 24 26 26 27 28 28 28 28 27 26 25 25 25 25 27 28 28 29 31 30 30 31 32 29 28 27 25 27 27 26 26 26 25 24 23 22
28 27 27 28 29 29 28 26 26 27 27 28 28 29 30 30 30 29 29 28 28 29 29 29 30 30 31 31 32 34 32 27 28 27 26 26 27 27 26 24 24 21 19
27 27 25 26 28 30 30 29 29 29 30 31 32 32 33 32 33 33 33 32 32 31 32 32 34 33 33 31 31 32 32 29 26 27 26 26 26 25 25 24 23 22 21
24 23 24 23 24 25 27 28 29 29 30 31 32 34 34 34 35 35 35 35 35 35 36 36 36 34 34 35 35 32 31 30 27 25 26 25 25 24 25 25 24 24 23
22 24 25 25 25 25 26 27 29 30 30 31 31 31 33 35 35 36 36 36 36 36 36 37 36 35 36 37 37 32 28 31 32 32 32 31 27 24 24 26 26 26 25
23 24 25 25 26 26 26 27 29 31 31 32 33 34 34 35 37 38 39 40 40 40 39 40 39 40 39 37 35 33 29 30 30 30 30 30 28 27 25 25 26 26 26
26 26 26 27 27 26 25 27 28 28 29 30 32 33 34 34 35 36 38 40 41 42 42 42 42 42 41 40 37 35 30 32 32 32 32 30 30 28 27 26 25 25 25
29 29 29 28 28 28 29 31 31 30 31 31 32 34 35 37 37 38 39 41 43 44 46 46 45 45 45 46 45 42 39 37 37 36 35 31 32 31 29 28 26 25 24
28 28 30 31 32 33 35 36 37 36 34 34 33 33 35 38 40 42 43 45 46 47 47 49 49 48 48 48 48 48 45 44 42 41 39 37 35 35 34 32 28 27 24
27 28 31 33 34 35 37 38 39 40 41 42 43 44 44 46 48 50 51 52 53 54 54 54 54 53 51 50 50 49 49 49 47 46 44 43 39 40 37 37 34 30 28
31 32 34 36 37 38 40 40 40 41 42 44 46 48 51 54 55 55 56 57 58 58 59 60 59 59 57 56 54 52 50 48 50 50 49 47 47 42 41 41 41 39 33
33 35 37 38 40 40 41 42 44 45 48 50 51 51 52 55 57 61 63 64 65 65 64 61 61 61 61 62 61 59 55 52 52 52 51 51 49 51 45 45 46 41 39
35 36 38 40 41 43 44 47 49 52 53 52 54 55 58 60 62 65 68 68 68 69 68 67 68 69 66 64 63 63 62 59 55 54 55 55 53 53 53 50 48 50 42
39 40 42 44 46 48 51 53 54 54 55 57 61 64 66 67 71 69 67 67 68 69 70 70 70 72 72 71 69 67 66 65 64 60 57 58 59 58 56 56 54 53 50
42 45 47 50 52 54 55 55 57 59 62 65 67 69 71 73 73 70 69 69 70 71 71 71 71 71 72 75 74 73 72 72 70 68 65 62 62 63 61 58 59 57 53
44 48 50 52 54 55 56 58 60 63 65 69 71 73 73 70 69 69 68 69 70 70 69 67 66 65 65 66 69 70 70 66 72 73 71 71 66 64 65 64 60 61 57
48 52 55 56 57 58 60 61 64 66 70 73 74 72 72 71 69 68 66 65 65 63 62 61 62 62 61 62 64 66 65 65 65 64 70 75 75 72 69 69 67 63 61
53 54 56 58 58 60 62 65 67 70 72 71 70 70 69 68 66 65 64 63 62 61 59 59 59 61 62 64 66 69 71 73 72 72 67 70 75 77 78 76 74 70 64
54 57 59 59 61 63 65 68 70 68 67 68 67 67 65 64 63 61 60 60 59 57 56 58 57 58 59 63 66 67 68 71 73 75 73 71 72 77 79 80 76 75 69
56 58 60 61 63 66 67 62 61 63 64 64 64 62 61 61 60 59 59 56 53 52 51 52 54 56 58 60 61 60 61 61 60 62 72 77 75 74 79 81 80 76 75
Wind_Direction
317 321 329 327 319 324 331 333 333 343 350 352 351 354 345 324 304 288 274 268 272 276 278 279 283 287 290 292 296 296 298 299 300 302 304 307 309 312 314 314 315 315 311
319 323 320 319 314 317 318 319 322 325 333 335 337 336 340 340 331 311 295 287 283 281 283 285 287 287 288 290 290 290 295 295 297 298 300 304 306 308 310 311 312 313 313
316 318 315 310 309 310 312 309 310 313 316 318 319 321 323 323 322 325 319 313 301 295 292 291 291 291 290 291 291 293 294 295 297 299 301 309 312 311 312 311 311 313 311
313 315 311 306 306 310 311 311 311 307 304 305 303 306 309 310 312 311 304 301 303 306 306 302 302 301 299 298 297 297 299 301 302 305 308 313 313 314 313 311 313 313 308
310 311 304 297 301 305 307 308 306 305 305 306 306 307 306 305 307 307 307 306 303 300 296 296 298 300 302 301 302 302 301 301 302 303 305 308 307 309 310 311 311 311 309
317 312 307 298 295 297 300 302 302 299 297 299 301 303 303 303 303 301 298 297 301 301 303 306 304 302 301 301 301 302 303 302 305 307 305 304 304 305 303 304 306 309 309
304 302 302 301 299 296 294 296 298 297 294 292 292 294 294 293 294 294 293 291 291 293 296 297 299 299 301 299 300 297 296 300 302 306 307 306 303 302 302 302 302 305 308
297 293 291 293 295 296 297 295 291 291 290 292 290 290 290 289 288 287 286 285 287 288 288 290 290 292 296 295 299 297 292 294 299 303 306 307 305 302 300 299 301 302 301
291 292 293 292 292 292 294 293 292 290 287 286 285 286 287 285 284 285 285 286 287 286 287 287 288 288 290 292 298 293 292 289 294 299 302 307 306 301 298 297 297 300 301
288 293 294 294 294 294 296 296 296 294 293 290 289 288 287 286 286 285 286 285 286 287 288 289 288 290 292 293 294 295 288 289 288 293 300 305 307 304 299 294 293 296 300
286 293 299 299 296 295 295 296 296 296 295 294 292 290 290 290 290 288 287 287 287 285 285 286 288 290 290 292 292 288 291 285 288 290 292 296 298 299 298 292 291 293 299
285 292 297 298 295 293 292 292 292 291 292 295 296 294 292 290 290 291 292 293 293 292 290 289 290 290 289 289 288 289 287 290 295 294 295 291 292 291 292 292 290 291 296
283 290 294 294 292 291 293 294 293 295 296 298 298 299 299 296 295 294 294 295 295 295 293 293 294 294 293 293 290 291 287 290 290 290 290 290 290 291 286 288 290 290 292
281 287 291 292 294 297 299 301 299 296 295 295 298 300 301 300 299 298 297 296 295 294 294 293 293 293 292 293 291 288 287 285 285 285 284 281 282 287 290 285 284 288 289
283 288 289 290 293 295 298 300 299 298 296 291 292 296 299 301 301 300 299 297 296 295 293 292 291 289 288 287 286 287 285 282 283 282 284 285 282 279 282 282 281 279 281
288 289 289 290 292 294 296 299 299 301 301 302 301 298 297 297 299 300 300 299 298 297 295 293 291 288 285 283 281 280 280 280 278 279 281 282 281 282 284 279 279 280 275
291 293 294 293 294 294 295 296 298 298 298 298 298 297 295 296 297 297 296 296 296 297 296 293 290 287 285 282 279 277 275 274 277 275 275 276 278 276 278 278 277 276 279
291 292 292 293 294 294 294 294 293 294 294 294 293 294 294 295 297 297 297 297 296 293 291 291 289 285 282 280 279 277 272 269 270 271 271 272 272 274 271 272 276 275 275
289 290 292 292 292 291 292 291 292 293 293 293 295 296 296 295 295 295 292 292 292 291 289 287 286 285 282 277 274 273 272 270 265 264 266 267 268 268 269 268 269 273 270
290 292 292 291 290 290 291 292 293 294 294 293 293 293 292 293 297 298 294 291 289 287 286 284 282 282 280 277 275 272 271 268 266 264 261 263 264 263 263 264 265 264 269
291 291 290 290 290 291 292 292 293 294 294 296 298 298 299 300 299 296 296 294 293 292 292 290 288 284 282 280 278 275 271 268 268 266 260 259 259 260 260 259 261 262 262
290 292 292 291 292 292 292 293 294 295 297 299 300 301 300 298 297 296 295 294 293 293 292 291 289 287 284 282 280 278 275 270 268 266 264 261 257 256 258 259 256 258 259
293 294 293 293 291 291 292 293 295 297 300 301 301 300 299 299 299 299 298 296 295 293 290 288 288 287 285 284 283 279 274 271 268 263 264 260 259 256 253 256 256 255 255
291 290 289 289 290 291 293 295 297 300 300 299 299 301 301 302 302 301 299 296 294 293 292 293 293 292 290 289 287 285 283 278 271 265 259 259 258 254 253 250 251 251 251
291 290 289 290 291 292 294 296 299 299 299 300 302 304 303 302 300 299 298 297 296 296 295 295 295 297 297 295 292 289 286 281 277 271 263 254 253 255 253 250 247 249 251
290 288 288 290 291 293 297 299 300 301 302 303 302 301 300 298 299 300 301 299 297 296 296 296 300 300 299 297 295 293 290 286 285 281 269 258 250 247 251 251 247 243 243